Time,TemperatureF,DewpointF,PressureIn,WindDirection,WindDirectionDegrees,WindSpeedMPH,WindSpeedGustMPH,Humidity,HourlyPrecipIn,Conditions,Clouds,dailyrainin,SoftwareType,DateUTC
2014-02-02 00:01:00,42.5,42.0,30.08,SE,135,2.3,6.0,96,0.00,,,0.00,Rainwise IP-100,2014-02-02 05:01:00,
2014-02-02 00:02:00,42.5,42.0,30.08,SSE,157,4.9,6.0,96,0.00,,,0.00,Rainwise IP-100,2014-02-02 05:02:00,
2014-02-02 00:07:00,42.5,42.0,30.07,SSE,157,3.0,6.0,96,0.00,,,0.00,Rainwise IP-100,2014-02-02 05:07:00,
2014-02-02 00:12:00,42.6,42.0,30.07,SE,135,3.3,6.0,96,0.00,,,0.00,Rainwise IP-100,2014-02-02 05:12:00,
2014-02-02 00:17:00,42.7,42.0,30.07,ESE,112,5.6,8.0,96,0.00,,,0.00,Rainwise IP-100,2014-02-02 05:17:00,
2014-02-02 00:22:00,42.8,42.0,30.06,SSW,202,4.2,9.0,96,0.00,,,0.00,Rainwise IP-100,2014-02-02 05:22:00,
2014-02-02 00:27:00,42.8,42.0,30.05,SSW,202,2.3,7.0,96,0.00,,,0.00,Rainwise IP-100,2014-02-02 05:27:00,
2014-02-02 00:33:00,42.7,42.0,30.05,South,180,3.7,6.0,96,0.00,,,0.00,Rainwise IP-100,2014-02-02 05:33:00,
2014-02-02 00:38:00,42.7,42.0,30.06,WSW,247,2.6,4.0,97,0.00,,,0.00,Rainwise IP-100,2014-02-02 05:38:00,
2014-02-02 00:43:00,42.4,41.0,30.05,West,270,2.8,4.0,96,0.00,,,0.00,Rainwise IP-100,2014-02-02 05:43:00,
2014-02-02 00:48:00,42.0,41.0,30.05,West,270,0.0,4.0,96,0.00,,,0.00,Rainwise IP-100,2014-02-02 05:48:00,
2014-02-02 00:53:00,41.7,41.0,30.04,West,270,0.0,0.0,96,0.00,,,0.00,Rainwise IP-100,2014-02-02 05:53:00,
2014-02-02 00:58:00,41.7,41.0,30.04,South,180,0.0,1.0,97,0.00,,,0.00,Rainwise IP-100,2014-02-02 05:58:00,
2014-02-02 01:03:00,41.8,41.0,30.04,South,180,0.0,0.0,97,0.00,,,0.00,Rainwise IP-100,2014-02-02 06:03:00,
2014-02-02 01:08:00,41.8,41.0,30.04,South,180,0.0,0.0,97,0.00,,,0.00,Rainwise IP-100,2014-02-02 06:08:00,
2014-02-02 01:14:00,41.4,40.0,30.03,South,180,0.0,0.0,96,0.00,,,0.00,Rainwise IP-100,2014-02-02 06:14:00,
2014-02-02 01:19:00,40.6,40.0,30.03,WSW,247,0.0,2.0,96,0.00,,,0.00,Rainwise IP-100,2014-02-02 06:19:00,
2014-02-02 01:24:00,40.2,39.0,30.02,NW,315,0.0,0.0,96,0.00,,,0.00,Rainwise IP-100,2014-02-02 06:24:00,
2014-02-02 01:29:00,40.0,39.0,30.03,NNE,22,1.6,1.6,96,0.00,,,0.00,Rainwise IP-100,2014-02-02 06:29:00,
2014-02-02 01:34:00,39.5,39.0,30.02,NE,45,2.3,3.0,96,0.00,,,0.00,Rainwise IP-100,2014-02-02 06:34:00,
2014-02-02 01:39:00,39.1,38.0,30.02,NE,45,0.0,2.0,96,0.00,,,0.00,Rainwise IP-100,2014-02-02 06:39:00,
2014-02-02 01:44:00,38.9,38.0,30.02,NE,45,1.6,0.0,96,0.00,,,0.00,Rainwise IP-100,2014-02-02 06:44:00,
2014-02-02 01:50:00,38.6,38.0,30.01,NE,45,2.6,2.6,96,0.00,,,0.00,Rainwise IP-100,2014-02-02 06:50:00,
2014-02-02 01:55:00,38.4,37.0,30.01,NE,45,0.0,2.0,97,0.00,,,0.00,Rainwise IP-100,2014-02-02 06:55:00,
2014-02-02 02:00:00,38.6,38.0,30.01,East,90,0.0,3.0,97,0.00,,,0.00,Rainwise IP-100,2014-02-02 07:00:00,
2014-02-02 02:05:00,39.1,38.0,30.01,SE,135,2.8,4.0,97,0.00,,,0.00,Rainwise IP-100,2014-02-02 07:05:00,
2014-02-02 02:10:00,39.9,40.0,30.01,SE,135,2.1,3.0,98,0.00,,,0.00,Rainwise IP-100,2014-02-02 07:10:00,
2014-02-02 02:15:00,40.4,40.0,30.00,ESE,112,0.0,2.0,98,0.00,,,0.00,Rainwise IP-100,2014-02-02 07:15:00,
2014-02-02 02:20:00,40.6,41.0,30.00,ESE,112,0.0,1.0,99,0.00,,,0.00,Rainwise IP-100,2014-02-02 07:20:00,
2014-02-02 02:25:00,40.8,41.0,30.00,ESE,112,0.0,0.0,99,0.00,,,0.00,Rainwise IP-100,2014-02-02 07:25:00,
2014-02-02 02:31:00,40.7,40.0,29.99,ESE,112,0.0,0.0,98,0.00,,,0.00,Rainwise IP-100,2014-02-02 07:31:00,
2014-02-02 02:36:00,40.0,39.0,29.99,West,270,2.6,3.0,97,0.00,,,0.00,Rainwise IP-100,2014-02-02 07:36:00,
2014-02-02 02:41:00,39.4,38.0,29.99,West,270,2.3,2.3,97,0.00,,,0.00,Rainwise IP-100,2014-02-02 07:41:00,
2014-02-02 02:46:00,39.2,39.0,29.99,West,270,2.1,2.1,98,0.00,,,0.00,Rainwise IP-100,2014-02-02 07:46:00,
2014-02-02 02:51:00,39.1,39.0,29.99,West,270,1.2,2.0,98,0.00,,,0.00,Rainwise IP-100,2014-02-02 07:51:00,
2014-02-02 02:56:00,39.0,39.0,29.98,West,270,2.3,2.3,98,0.00,,,0.00,Rainwise IP-100,2014-02-02 07:56:00,
2014-02-02 03:01:00,39.0,39.0,29.98,West,270,1.2,2.0,98,0.00,,,0.00,Rainwise IP-100,2014-02-02 08:01:00,
2014-02-02 03:07:00,39.0,39.0,29.98,West,270,0.0,1.0,99,0.00,,,0.00,Rainwise IP-100,2014-02-02 08:07:00,
2014-02-02 03:12:00,39.3,39.0,29.98,West,270,0.0,0.0,99,0.00,,,0.00,Rainwise IP-100,2014-02-02 08:12:00,
2014-02-02 03:17:00,39.5,40.0,29.97,West,270,0.0,0.0,99,0.00,,,0.00,Rainwise IP-100,2014-02-02 08:17:00,
2014-02-02 03:22:00,39.6,40.0,29.97,West,270,0.0,0.0,99,0.00,,,0.00,Rainwise IP-100,2014-02-02 08:22:00,
2014-02-02 03:27:00,39.8,40.0,29.97,West,270,0.0,0.0,99,0.00,,,0.00,Rainwise IP-100,2014-02-02 08:27:00,
2014-02-02 03:32:00,40.0,40.0,29.97,WSW,247,2.3,2.3,99,0.00,,,0.00,Rainwise IP-100,2014-02-02 08:32:00,
2014-02-02 03:37:00,40.2,40.0,29.98,WSW,247,2.3,2.3,99,0.00,,,0.00,Rainwise IP-100,2014-02-02 08:37:00,
2014-02-02 03:42:00,40.3,40.0,29.97,WSW,247,3.0,3.0,99,0.00,,,0.00,Rainwise IP-100,2014-02-02 08:42:00,
2014-02-02 03:48:00,39.9,40.0,29.97,WSW,247,2.3,4.0,99,0.00,,,0.00,Rainwise IP-100,2014-02-02 08:48:00,
2014-02-02 03:53:00,39.5,40.0,29.97,SW,225,2.8,3.0,99,0.00,,,0.00,Rainwise IP-100,2014-02-02 08:53:00,
2014-02-02 03:58:00,39.2,39.0,29.97,SW,225,1.9,4.0,99,0.00,,,0.00,Rainwise IP-100,2014-02-02 08:58:00,
2014-02-02 04:03:00,39.2,39.0,29.96,SW,225,2.1,3.0,99,0.00,,,0.00,Rainwise IP-100,2014-02-02 09:03:00,
2014-02-02 04:08:00,39.3,39.0,29.96,SW,225,2.3,3.0,99,0.00,,,0.00,Rainwise IP-100,2014-02-02 09:08:00,
2014-02-02 04:13:00,39.5,40.0,29.95,SW,225,2.8,3.0,99,0.00,,,0.00,Rainwise IP-100,2014-02-02 09:13:00,
2014-02-02 04:18:00,39.7,40.0,29.96,SW,225,2.6,3.0,100,0.00,,,0.00,Rainwise IP-100,2014-02-02 09:18:00,
2014-02-02 04:24:00,39.9,40.0,29.96,SSW,202,1.9,3.0,100,0.00,,,0.00,Rainwise IP-100,2014-02-02 09:24:00,
2014-02-02 04:29:00,40.0,40.0,29.96,SSW,202,2.1,3.0,100,0.00,,,0.00,Rainwise IP-100,2014-02-02 09:29:00,
2014-02-02 04:34:00,40.1,40.0,29.96,SSW,202,1.9,3.0,100,0.00,,,0.00,Rainwise IP-100,2014-02-02 09:34:00,
2014-02-02 04:39:00,40.2,40.0,29.96,SSW,202,1.6,2.0,100,0.00,,,0.00,Rainwise IP-100,2014-02-02 09:39:00,
2014-02-02 04:44:00,40.2,40.0,29.95,SSW,202,2.6,3.0,100,0.00,,,0.00,Rainwise IP-100,2014-02-02 09:44:00,
2014-02-02 04:49:00,40.2,40.0,29.95,WSW,247,2.1,3.0,100,0.00,,,0.00,Rainwise IP-100,2014-02-02 09:49:00,
2014-02-02 04:54:00,40.2,40.0,29.96,WSW,247,1.6,3.0,100,0.00,,,0.00,Rainwise IP-100,2014-02-02 09:54:00,
2014-02-02 04:59:00,40.1,40.0,29.95,WSW,247,2.3,3.0,100,0.00,,,0.00,Rainwise IP-100,2014-02-02 09:59:00,
2014-02-02 05:05:00,39.7,40.0,29.96,WSW,247,2.8,4.0,99,0.00,,,0.00,Rainwise IP-100,2014-02-02 10:05:00,
2014-02-02 05:10:00,39.4,39.0,29.96,WSW,247,1.9,4.0,99,0.00,,,0.00,Rainwise IP-100,2014-02-02 10:10:00,
2014-02-02 05:15:00,39.1,39.0,29.96,WSW,247,1.2,4.0,100,0.00,,,0.00,Rainwise IP-100,2014-02-02 10:15:00,
2014-02-02 05:20:00,38.7,39.0,29.96,WSW,247,2.1,3.0,100,0.00,,,0.00,Rainwise IP-100,2014-02-02 10:20:00,
2014-02-02 05:25:00,38.1,38.0,29.96,SSW,202,2.1,3.0,100,0.00,,,0.00,Rainwise IP-100,2014-02-02 10:25:00,
2014-02-02 05:30:00,37.7,38.0,29.96,SSW,202,3.3,3.3,100,0.00,,,0.00,Rainwise IP-100,2014-02-02 10:30:00,
2014-02-02 05:35:00,37.6,38.0,29.95,SSW,202,1.9,3.0,100,0.00,,,0.00,Rainwise IP-100,2014-02-02 10:35:00,
2014-02-02 05:41:00,37.6,38.0,29.95,SSW,202,2.8,3.0,100,0.00,,,0.00,Rainwise IP-100,2014-02-02 10:41:00,
2014-02-02 05:46:00,37.6,38.0,29.95,SW,225,1.4,3.0,100,0.00,,,0.00,Rainwise IP-100,2014-02-02 10:46:00,
2014-02-02 05:51:00,37.7,38.0,29.95,WSW,247,1.4,4.0,100,0.00,,,0.00,Rainwise IP-100,2014-02-02 10:51:00,
2014-02-02 05:56:00,37.5,38.0,29.95,West,270,2.3,4.0,100,0.00,,,0.00,Rainwise IP-100,2014-02-02 10:56:00,
2014-02-02 06:01:00,37.3,37.0,29.95,WSW,247,2.1,4.0,100,0.00,,,0.00,Rainwise IP-100,2014-02-02 11:01:00,
2014-02-02 06:06:00,37.1,37.0,29.95,WSW,247,1.9,4.0,100,0.00,,,0.00,Rainwise IP-100,2014-02-02 11:06:00,
2014-02-02 06:11:00,37.1,37.0,29.96,SW,225,2.3,4.0,100,0.00,,,0.00,Rainwise IP-100,2014-02-02 11:11:00,
2014-02-02 06:16:00,37.1,37.0,29.95,WSW,247,2.6,4.0,100,0.00,,,0.00,Rainwise IP-100,2014-02-02 11:16:00,
2014-02-02 06:22:00,37.0,37.0,29.95,SW,225,3.3,4.0,100,0.00,,,0.00,Rainwise IP-100,2014-02-02 11:22:00,
2014-02-02 06:27:00,37.1,37.0,29.95,SSW,202,3.7,4.0,100,0.00,,,0.00,Rainwise IP-100,2014-02-02 11:27:00,
2014-02-02 06:32:00,37.4,37.0,29.96,SSW,202,4.2,5.0,100,0.00,,,0.00,Rainwise IP-100,2014-02-02 11:32:00,
2014-02-02 06:37:00,37.5,38.0,29.96,SSW,202,4.0,5.0,100,0.00,,,0.00,Rainwise IP-100,2014-02-02 11:37:00,
2014-02-02 06:42:00,37.7,38.0,29.96,SSW,202,3.7,5.0,100,0.00,,,0.00,Rainwise IP-100,2014-02-02 11:42:00,
2014-02-02 06:47:00,37.9,38.0,29.95,SSW,202,5.6,6.0,100,0.00,,,0.00,Rainwise IP-100,2014-02-02 11:47:00,
2014-02-02 06:52:00,38.2,38.0,29.95,SSW,202,4.7,6.0,100,0.00,,,0.00,Rainwise IP-100,2014-02-02 11:52:00,
2014-02-02 06:58:00,38.4,38.0,29.95,SSW,202,4.2,7.0,100,0.00,,,0.00,Rainwise IP-100,2014-02-02 11:58:00,
2014-02-02 07:03:00,38.5,39.0,29.96,SSW,202,5.8,7.0,100,0.00,,,0.00,Rainwise IP-100,2014-02-02 12:03:00,
2014-02-02 07:08:00,38.6,39.0,29.95,SSW,202,7.2,8.0,100,0.00,,,0.00,Rainwise IP-100,2014-02-02 12:08:00,
2014-02-02 07:13:00,38.6,39.0,29.95,SSW,202,4.7,8.0,100,0.00,,,0.00,Rainwise IP-100,2014-02-02 12:13:00,
2014-02-02 07:18:00,38.5,39.0,29.96,SW,225,6.1,9.0,100,0.00,,,0.00,Rainwise IP-100,2014-02-02 12:18:00,
2014-02-02 07:23:00,38.5,39.0,29.95,SW,225,4.7,7.0,100,0.00,,,0.00,Rainwise IP-100,2014-02-02 12:23:00,
2014-02-02 07:28:00,38.4,38.0,29.97,SW,225,7.9,9.0,100,0.00,,,0.00,Rainwise IP-100,2014-02-02 12:28:00,
2014-02-02 07:33:00,38.4,38.0,29.97,SW,225,5.4,8.0,100,0.00,,,0.00,Rainwise IP-100,2014-02-02 12:33:00,
2014-02-02 07:39:00,38.3,38.0,29.96,SSW,202,7.0,9.0,100,0.00,,,0.00,Rainwise IP-100,2014-02-02 12:39:00,
2014-02-02 07:44:00,38.3,38.0,29.97,SSW,202,3.7,8.0,100,0.00,,,0.00,Rainwise IP-100,2014-02-02 12:44:00,
2014-02-02 07:49:00,38.2,38.0,29.97,SSW,202,6.8,8.0,100,0.00,,,0.00,Rainwise IP-100,2014-02-02 12:49:00,
2014-02-02 07:54:00,38.1,38.0,29.97,SSW,202,4.9,8.0,100,0.00,,,0.00,Rainwise IP-100,2014-02-02 12:54:00,
2014-02-02 07:59:00,38.1,38.0,29.97,SSW,202,5.8,8.0,100,0.00,,,0.00,Rainwise IP-100,2014-02-02 12:59:00,
2014-02-02 08:04:00,38.0,38.0,29.97,SSW,202,1.9,6.0,100,0.00,,,0.00,Rainwise IP-100,2014-02-02 13:04:00,
2014-02-02 08:09:00,38.0,38.0,29.97,SSW,202,5.4,8.0,100,0.00,,,0.00,Rainwise IP-100,2014-02-02 13:09:00,
2014-02-02 08:15:00,38.0,38.0,29.97,SSW,202,4.0,7.0,100,0.00,,,0.00,Rainwise IP-100,2014-02-02 13:15:00,
2014-02-02 08:20:00,38.0,38.0,29.97,SSW,202,6.1,7.0,100,0.00,,,0.00,Rainwise IP-100,2014-02-02 13:20:00,
2014-02-02 08:25:00,38.1,38.0,29.98,SW,225,4.9,7.0,100,0.00,,,0.00,Rainwise IP-100,2014-02-02 13:25:00,
2014-02-02 08:30:00,38.2,38.0,29.98,SSW,202,5.6,7.0,100,0.00,,,0.00,Rainwise IP-100,2014-02-02 13:30:00,
2014-02-02 08:35:00,38.3,38.0,29.98,SSW,202,4.2,6.0,100,0.00,,,0.00,Rainwise IP-100,2014-02-02 13:35:00,
2014-02-02 08:40:00,38.5,39.0,29.98,SSW,202,5.6,5.6,100,0.00,,,0.00,Rainwise IP-100,2014-02-02 13:40:00,
2014-02-02 08:45:00,38.8,39.0,29.98,SSW,202,4.9,6.0,100,0.00,,,0.00,Rainwise IP-100,2014-02-02 13:45:00,
2014-02-02 08:50:00,39.0,39.0,29.98,SSW,202,4.4,7.0,100,0.00,,,0.00,Rainwise IP-100,2014-02-02 13:50:00,
2014-02-02 08:56:00,39.2,39.0,29.98,SW,225,4.9,7.0,100,0.00,,,0.00,Rainwise IP-100,2014-02-02 13:56:00,
2014-02-02 09:01:00,39.5,40.0,29.98,SSW,202,3.3,6.0,100,0.00,,,0.00,Rainwise IP-100,2014-02-02 14:01:00,
2014-02-02 09:06:00,39.9,40.0,29.98,SSW,202,4.4,7.0,100,0.00,,,0.00,Rainwise IP-100,2014-02-02 14:06:00,
2014-02-02 09:11:00,40.0,40.0,29.98,SSW,202,6.1,7.0,100,0.00,,,0.00,Rainwise IP-100,2014-02-02 14:11:00,
2014-02-02 09:16:00,40.3,40.0,29.98,SSW,202,5.8,7.0,100,0.00,,,0.00,Rainwise IP-100,2014-02-02 14:16:00,
2014-02-02 09:21:00,40.5,41.0,29.98,SSW,202,4.2,7.0,100,0.00,,,0.00,Rainwise IP-100,2014-02-02 14:21:00,
2014-02-02 09:26:00,40.6,41.0,29.98,South,180,4.0,7.0,100,0.00,,,0.00,Rainwise IP-100,2014-02-02 14:26:00,
2014-02-02 09:32:00,40.6,41.0,29.98,SSW,202,5.1,7.0,100,0.00,,,0.00,Rainwise IP-100,2014-02-02 14:32:00,
2014-02-02 09:37:00,40.5,41.0,29.98,SSW,202,4.0,8.0,100,0.00,,,0.00,Rainwise IP-100,2014-02-02 14:37:00,
2014-02-02 09:42:00,40.6,41.0,29.99,SW,225,5.4,8.0,100,0.00,,,0.00,Rainwise IP-100,2014-02-02 14:42:00,
2014-02-02 09:47:00,40.7,41.0,29.98,South,180,4.7,8.0,100,0.00,,,0.00,Rainwise IP-100,2014-02-02 14:47:00,
2014-02-02 09:52:00,40.8,41.0,29.99,SSW,202,4.4,9.0,100,0.00,,,0.00,Rainwise IP-100,2014-02-02 14:52:00,
2014-02-02 09:57:00,40.9,41.0,29.99,SSW,202,4.7,8.0,100,0.00,,,0.00,Rainwise IP-100,2014-02-02 14:57:00,
2014-02-02 10:02:00,41.3,41.0,29.98,SSW,202,4.7,8.0,99,0.00,,,0.00,Rainwise IP-100,2014-02-02 15:02:00,
2014-02-02 10:07:00,41.7,41.0,29.98,SSW,202,3.3,7.0,98,0.00,,,0.00,Rainwise IP-100,2014-02-02 15:07:00,
2014-02-02 10:13:00,42.0,41.0,29.98,SSW,202,4.0,9.0,96,0.00,,,0.00,Rainwise IP-100,2014-02-02 15:13:00,
2014-02-02 10:18:00,42.0,40.0,29.98,SSW,202,6.8,8.0,94,0.00,,,0.00,Rainwise IP-100,2014-02-02 15:18:00,
2014-02-02 10:23:00,41.9,40.0,29.98,SSW,202,3.3,9.0,93,0.00,,,0.00,Rainwise IP-100,2014-02-02 15:23:00,
2014-02-02 10:28:00,42.0,40.0,29.98,South,180,7.0,9.0,92,0.00,,,0.00,Rainwise IP-100,2014-02-02 15:28:00,
2014-02-02 10:33:00,42.3,40.0,29.98,SSE,157,5.8,9.0,91,0.00,,,0.00,Rainwise IP-100,2014-02-02 15:33:00,
2014-02-02 10:38:00,42.3,40.0,29.98,SSW,202,8.2,9.0,91,0.00,,,0.00,Rainwise IP-100,2014-02-02 15:38:00,
2014-02-02 10:43:00,42.3,39.0,29.98,SSW,202,6.5,10.0,90,0.00,,,0.00,Rainwise IP-100,2014-02-02 15:43:00,
2014-02-02 10:49:00,42.6,40.0,29.98,SSW,202,3.3,9.0,89,0.00,,,0.00,Rainwise IP-100,2014-02-02 15:49:00,
2014-02-02 10:54:00,42.9,40.0,29.99,SSW,202,2.8,9.0,89,0.00,,,0.00,Rainwise IP-100,2014-02-02 15:54:00,
2014-02-02 10:59:00,43.2,40.0,29.99,SSW,202,7.2,8.0,88,0.00,,,0.00,Rainwise IP-100,2014-02-02 15:59:00,
2014-02-02 11:04:00,43.7,40.0,29.99,SW,225,4.2,7.0,87,0.00,,,0.00,Rainwise IP-100,2014-02-02 16:04:00,
2014-02-02 11:09:00,44.8,41.0,29.99,WSW,247,3.7,5.0,86,0.00,,,0.00,Rainwise IP-100,2014-02-02 16:09:00,
2014-02-02 11:14:00,45.6,41.0,29.99,West,270,4.4,5.0,85,0.00,,,0.00,Rainwise IP-100,2014-02-02 16:14:00,
2014-02-02 11:19:00,45.6,41.0,29.99,WSW,247,4.2,5.0,83,0.00,,,0.00,Rainwise IP-100,2014-02-02 16:19:00,
2014-02-02 11:24:00,45.5,41.0,29.99,WSW,247,2.1,5.0,84,0.00,,,0.00,Rainwise IP-100,2014-02-02 16:24:00,
2014-02-02 11:30:00,45.4,40.0,29.98,West,270,5.8,6.0,84,0.00,,,0.00,Rainwise IP-100,2014-02-02 16:30:00,
2014-02-02 11:35:00,45.4,40.0,29.98,WSW,247,5.4,6.0,84,0.00,,,0.00,Rainwise IP-100,2014-02-02 16:35:00,
2014-02-02 11:40:00,45.7,41.0,29.98,West,270,5.8,7.0,83,0.00,,,0.00,Rainwise IP-100,2014-02-02 16:40:00,
2014-02-02 11:45:00,45.8,40.0,29.98,West,270,6.5,8.0,82,0.00,,,0.00,Rainwise IP-100,2014-02-02 16:45:00,
2014-02-02 11:50:00,45.8,40.0,29.98,West,270,5.8,8.0,82,0.00,,,0.00,Rainwise IP-100,2014-02-02 16:50:00,
2014-02-02 11:55:00,46.2,40.0,29.98,West,270,5.4,8.0,81,0.00,,,0.00,Rainwise IP-100,2014-02-02 16:55:00,
2014-02-02 12:00:00,46.6,41.0,29.98,WSW,247,3.5,8.0,80,0.00,,,0.00,Rainwise IP-100,2014-02-02 17:00:00,
2014-02-02 12:06:00,47.0,40.0,29.98,WSW,247,6.5,9.0,78,0.00,,,0.00,Rainwise IP-100,2014-02-02 17:06:00,
2014-02-02 12:11:00,47.5,40.0,29.98,SW,225,6.5,10.0,77,0.00,,,0.00,Rainwise IP-100,2014-02-02 17:11:00,
2014-02-02 12:16:00,48.0,41.0,29.97,SSW,202,8.2,8.2,75,0.00,,,0.00,Rainwise IP-100,2014-02-02 17:16:00,
2014-02-02 12:21:00,48.4,39.0,29.97,SSW,202,4.9,10.0,71,0.00,,,0.00,Rainwise IP-100,2014-02-02 17:21:00,
2014-02-02 12:26:00,48.9,40.0,29.96,SSW,202,7.7,8.0,70,0.00,,,0.00,Rainwise IP-100,2014-02-02 17:26:00,
2014-02-02 12:31:00,49.3,40.0,29.97,South,180,5.6,9.0,71,0.00,,,0.00,Rainwise IP-100,2014-02-02 17:31:00,
2014-02-02 12:36:00,49.2,41.0,29.97,SSW,202,5.8,7.0,73,0.00,,,0.00,Rainwise IP-100,2014-02-02 17:36:00,
2014-02-02 12:41:00,49.2,41.0,29.97,SW,225,6.1,8.0,73,0.00,,,0.00,Rainwise IP-100,2014-02-02 17:41:00,
2014-02-02 12:47:00,49.2,41.0,29.97,SSW,202,4.4,7.0,73,0.00,,,0.00,Rainwise IP-100,2014-02-02 17:47:00,
2014-02-02 12:52:00,49.0,41.0,29.97,SSW,202,7.9,9.0,74,0.00,,,0.00,Rainwise IP-100,2014-02-02 17:52:00,
2014-02-02 12:57:00,48.9,41.0,29.97,SSW,202,3.3,8.0,74,0.00,,,0.00,Rainwise IP-100,2014-02-02 17:57:00,
2014-02-02 13:02:00,49.2,41.0,29.97,SSW,202,6.1,8.0,73,0.00,,,0.00,Rainwise IP-100,2014-02-02 18:02:00,
2014-02-02 13:07:00,49.1,40.0,29.97,SSW,202,6.8,7.0,72,0.00,,,0.00,Rainwise IP-100,2014-02-02 18:07:00,
2014-02-02 13:12:00,48.6,41.0,29.98,SSW,202,4.0,7.0,73,0.00,,,0.00,Rainwise IP-100,2014-02-02 18:12:00,
2014-02-02 13:17:00,48.6,41.0,29.98,SSW,202,5.1,7.0,73,0.00,,,0.00,Rainwise IP-100,2014-02-02 18:17:00,
2014-02-02 13:23:00,48.9,41.0,29.97,South,180,2.6,7.0,73,0.00,,,0.00,Rainwise IP-100,2014-02-02 18:23:00,
2014-02-02 13:28:00,49.3,40.0,29.97,SSE,157,1.6,5.0,72,0.00,,,0.00,Rainwise IP-100,2014-02-02 18:28:00,
2014-02-02 13:33:00,49.9,41.0,29.97,SSW,202,4.0,7.0,71,0.00,,,0.00,Rainwise IP-100,2014-02-02 18:33:00,
2014-02-02 13:38:00,50.4,41.0,29.97,WSW,247,2.6,4.0,69,0.00,,,0.00,Rainwise IP-100,2014-02-02 18:38:00,
2014-02-02 13:43:00,50.8,40.0,29.97,WSW,247,0.0,3.0,68,0.00,,,0.00,Rainwise IP-100,2014-02-02 18:43:00,
2014-02-02 13:48:00,51.2,41.0,29.97,SSW,202,0.0,4.0,68,0.00,,,0.00,Rainwise IP-100,2014-02-02 18:48:00,
2014-02-02 13:53:00,51.7,41.0,29.97,West,270,0.0,4.0,66,0.00,,,0.00,Rainwise IP-100,2014-02-02 18:53:00,
2014-02-02 13:58:00,51.7,40.0,29.98,West,270,6.1,6.1,65,0.00,,,0.00,Rainwise IP-100,2014-02-02 18:58:00,
2014-02-02 14:04:00,51.3,40.0,29.98,WSW,247,6.3,9.0,66,0.00,,,0.00,Rainwise IP-100,2014-02-02 19:04:00,
2014-02-02 14:09:00,50.5,40.0,29.98,WSW,247,4.4,9.0,68,0.00,,,0.00,Rainwise IP-100,2014-02-02 19:09:00,
2014-02-02 14:14:00,49.2,40.0,29.97,WSW,247,7.9,9.0,70,0.00,,,0.00,Rainwise IP-100,2014-02-02 19:14:00,
2014-02-02 14:19:00,48.2,39.0,29.97,SSW,202,4.4,8.0,72,0.00,,,0.00,Rainwise IP-100,2014-02-02 19:19:00,
2014-02-02 14:24:00,47.7,39.0,29.97,SW,225,2.6,5.0,72,0.00,,,0.00,Rainwise IP-100,2014-02-02 19:24:00,
2014-02-02 14:29:00,48.3,39.0,29.98,West,270,4.9,4.9,72,0.00,,,0.00,Rainwise IP-100,2014-02-02 19:29:00,
2014-02-02 14:34:00,48.8,40.0,29.98,WSW,247,3.5,5.0,71,0.00,,,0.00,Rainwise IP-100,2014-02-02 19:34:00,
2014-02-02 14:40:00,48.8,40.0,29.98,WSW,247,5.1,5.1,71,0.00,,,0.00,Rainwise IP-100,2014-02-02 19:40:00,
2014-02-02 14:45:00,48.6,40.0,29.98,WSW,247,5.4,6.0,71,0.00,,,0.00,Rainwise IP-100,2014-02-02 19:45:00,
2014-02-02 14:50:00,48.3,39.0,29.98,WSW,247,2.1,6.0,71,0.00,,,0.00,Rainwise IP-100,2014-02-02 19:50:00,
2014-02-02 14:55:00,47.8,39.0,29.98,WSW,247,4.0,6.0,72,0.00,,,0.00,Rainwise IP-100,2014-02-02 19:55:00,
2014-02-02 15:00:00,47.4,39.0,29.99,WSW,247,3.7,6.0,72,0.00,,,0.00,Rainwise IP-100,2014-02-02 20:00:00,
2014-02-02 15:05:00,47.1,38.0,29.98,WSW,247,3.5,7.0,73,0.00,,,0.00,Rainwise IP-100,2014-02-02 20:05:00,
2014-02-02 15:10:00,46.5,39.0,29.98,WSW,247,3.0,5.0,74,0.00,,,0.00,Rainwise IP-100,2014-02-02 20:10:00,
2014-02-02 15:15:00,46.0,38.0,29.98,WSW,247,2.6,4.0,75,0.00,,,0.00,Rainwise IP-100,2014-02-02 20:15:00,
2014-02-02 15:21:00,45.6,39.0,29.98,WSW,247,2.6,3.0,76,0.00,,,0.00,Rainwise IP-100,2014-02-02 20:21:00,
2014-02-02 15:26:00,45.8,39.0,29.98,WSW,247,2.8,4.0,76,0.00,,,0.00,Rainwise IP-100,2014-02-02 20:26:00,
2014-02-02 15:31:00,46.4,38.0,29.98,SW,225,3.0,6.0,74,0.00,,,0.00,Rainwise IP-100,2014-02-02 20:31:00,
2014-02-02 15:36:00,46.9,38.0,29.97,SSW,202,2.8,4.0,73,0.00,,,0.00,Rainwise IP-100,2014-02-02 20:36:00,
2014-02-02 15:41:00,47.3,38.0,29.96,SW,225,1.9,3.0,72,0.00,,,0.00,Rainwise IP-100,2014-02-02 20:41:00,
2014-02-02 15:46:00,47.6,38.0,29.96,SW,225,3.3,3.3,70,0.00,,,0.00,Rainwise IP-100,2014-02-02 20:46:00,
2014-02-02 15:51:00,47.8,38.0,29.96,WSW,247,4.2,4.2,70,0.00,,,0.00,Rainwise IP-100,2014-02-02 20:51:00,
2014-02-02 15:57:00,47.7,38.0,29.97,WSW,247,3.3,4.0,70,0.00,,,0.00,Rainwise IP-100,2014-02-02 20:57:00,
2014-02-02 16:02:00,47.4,38.0,29.96,WSW,247,0.0,4.0,70,0.00,,,0.00,Rainwise IP-100,2014-02-02 21:02:00,
2014-02-02 16:07:00,47.3,38.0,29.96,SW,225,3.3,3.3,71,0.00,,,0.00,Rainwise IP-100,2014-02-02 21:07:00,
2014-02-02 16:12:00,47.3,38.0,29.97,SSW,202,3.7,6.0,71,0.00,,,0.00,Rainwise IP-100,2014-02-02 21:12:00,
2014-02-02 16:17:00,47.3,38.0,29.97,SSW,202,3.3,7.0,72,0.00,,,0.00,Rainwise IP-100,2014-02-02 21:17:00,
2014-02-02 16:22:00,47.0,39.0,29.98,SSW,202,5.6,7.0,74,0.00,,,0.00,Rainwise IP-100,2014-02-02 21:22:00,
2014-02-02 16:27:00,46.5,39.0,29.98,SSW,202,2.6,7.0,75,0.00,,,0.00,Rainwise IP-100,2014-02-02 21:27:00,
2014-02-02 16:32:00,46.3,39.0,29.98,SSW,202,3.3,5.0,76,0.00,,,0.00,Rainwise IP-100,2014-02-02 21:32:00,
2014-02-02 16:38:00,46.1,39.0,29.99,SSW,202,3.7,5.0,77,0.00,,,0.00,Rainwise IP-100,2014-02-02 21:38:00,
2014-02-02 16:43:00,46.1,39.0,29.99,SSW,202,3.3,5.0,77,0.00,,,0.00,Rainwise IP-100,2014-02-02 21:43:00,
2014-02-02 16:48:00,46.0,39.0,29.99,SSW,202,2.1,4.0,77,0.00,,,0.00,Rainwise IP-100,2014-02-02 21:48:00,
2014-02-02 16:53:00,46.0,39.0,29.99,SSW,202,1.6,3.0,77,0.00,,,0.00,Rainwise IP-100,2014-02-02 21:53:00,
2014-02-02 16:58:00,46.0,39.0,29.99,SSW,202,0.0,2.0,77,0.00,,,0.00,Rainwise IP-100,2014-02-02 21:58:00,
2014-02-02 17:03:00,45.8,39.0,29.99,SSW,202,2.1,2.1,77,0.00,,,0.00,Rainwise IP-100,2014-02-02 22:03:00,
2014-02-02 17:08:00,45.7,39.0,29.99,SSW,202,2.6,3.0,77,0.00,,,0.00,Rainwise IP-100,2014-02-02 22:08:00,
2014-02-02 17:14:00,45.8,39.0,29.98,SSW,202,1.9,2.0,77,0.00,,,0.00,Rainwise IP-100,2014-02-02 22:14:00,
2014-02-02 17:19:00,45.9,39.0,29.98,SSW,202,1.9,2.0,76,0.00,,,0.00,Rainwise IP-100,2014-02-02 22:19:00,
2014-02-02 17:24:00,46.0,38.0,29.99,SSW,202,1.2,2.0,75,0.00,,,0.00,Rainwise IP-100,2014-02-02 22:24:00,
2014-02-02 17:29:00,45.3,37.0,29.99,SSW,202,0.0,1.0,74,0.00,,,0.00,Rainwise IP-100,2014-02-02 22:29:00,
2014-02-02 17:34:00,44.3,37.0,29.99,SSW,202,1.6,3.0,75,0.00,,,0.00,Rainwise IP-100,2014-02-02 22:34:00,
2014-02-02 17:39:00,43.6,37.0,30.00,NW,315,3.5,4.0,77,0.00,,,0.00,Rainwise IP-100,2014-02-02 22:39:00,
2014-02-02 17:44:00,42.3,36.0,30.01,WSW,247,3.5,5.0,79,0.00,,,0.00,Rainwise IP-100,2014-02-02 22:44:00,
2014-02-02 17:49:00,41.5,37.0,30.01,WSW,247,4.2,5.0,80,0.00,,,0.00,Rainwise IP-100,2014-02-02 22:49:00,
2014-02-02 17:55:00,41.5,37.0,30.02,SSW,202,4.4,8.0,81,0.00,,,0.00,Rainwise IP-100,2014-02-02 22:55:00,
2014-02-02 18:00:00,41.0,36.0,30.01,SW,225,3.5,7.0,81,0.00,,,0.00,Rainwise IP-100,2014-02-02 23:00:00,
2014-02-02 18:05:00,40.6,36.0,30.01,SSW,202,4.9,6.0,82,0.00,,,0.00,Rainwise IP-100,2014-02-02 23:05:00,
2014-02-02 18:10:00,40.8,37.0,30.01,SSW,202,3.7,5.0,83,0.00,,,0.00,Rainwise IP-100,2014-02-02 23:10:00,
2014-02-02 18:15:00,41.1,37.0,30.02,SSW,202,3.7,5.0,83,0.00,,,0.00,Rainwise IP-100,2014-02-02 23:15:00,
2014-02-02 18:20:00,41.5,37.0,30.01,SSW,202,3.0,6.0,82,0.00,,,0.00,Rainwise IP-100,2014-02-02 23:20:00,
2014-02-02 18:25:00,41.7,37.0,30.02,WSW,247,4.0,5.0,82,0.00,,,0.00,Rainwise IP-100,2014-02-02 23:25:00,
2014-02-02 18:31:00,41.7,37.0,30.02,SW,225,3.7,5.0,81,0.00,,,0.00,Rainwise IP-100,2014-02-02 23:31:00,
2014-02-02 18:36:00,41.7,37.0,30.02,SW,225,3.0,4.0,81,0.00,,,0.00,Rainwise IP-100,2014-02-02 23:36:00,
2014-02-02 18:41:00,41.8,37.0,30.01,SSW,202,4.4,5.0,81,0.00,,,0.00,Rainwise IP-100,2014-02-02 23:41:00,
2014-02-02 18:46:00,42.1,37.0,30.01,SSW,202,4.0,6.0,81,0.00,,,0.00,Rainwise IP-100,2014-02-02 23:46:00,
2014-02-02 18:51:00,42.5,37.0,30.02,SSW,202,4.9,5.0,80,0.00,,,0.00,Rainwise IP-100,2014-02-02 23:51:00,
2014-02-02 18:56:00,42.8,37.0,30.01,SSW,202,5.4,7.0,80,0.00,,,0.00,Rainwise IP-100,2014-02-02 23:56:00,
2014-02-02 19:01:00,43.0,37.0,30.01,SSW,202,6.3,6.3,79,0.00,,,0.00,Rainwise IP-100,2014-02-03 00:01:00,
2014-02-02 19:06:00,43.3,37.0,30.01,SSW,202,5.1,7.0,79,0.00,,,0.00,Rainwise IP-100,2014-02-03 00:06:00,
2014-02-02 19:12:00,43.5,38.0,30.02,SSW,202,4.7,6.0,79,0.00,,,0.00,Rainwise IP-100,2014-02-03 00:12:00,
2014-02-02 19:17:00,43.7,38.0,30.03,WSW,247,2.6,5.0,79,0.00,,,0.00,Rainwise IP-100,2014-02-03 00:17:00,
2014-02-02 19:22:00,43.6,38.0,30.03,SW,225,4.2,7.0,78,0.00,,,0.00,Rainwise IP-100,2014-02-03 00:22:00,
2014-02-02 19:27:00,43.5,38.0,30.04,SW,225,4.9,5.0,78,0.00,,,0.00,Rainwise IP-100,2014-02-03 00:27:00,
2014-02-02 19:32:00,43.5,38.0,30.03,WSW,247,4.4,6.0,79,0.00,,,0.00,Rainwise IP-100,2014-02-03 00:32:00,
2014-02-02 19:37:00,43.4,37.0,30.04,WSW,247,2.8,5.0,79,0.00,,,0.00,Rainwise IP-100,2014-02-03 00:37:00,
2014-02-02 19:42:00,43.2,37.0,30.05,WSW,247,2.6,5.0,79,0.00,,,0.00,Rainwise IP-100,2014-02-03 00:42:00,
2014-02-02 19:48:00,43.0,37.0,30.06,WSW,247,5.8,6.0,79,0.00,,,0.00,Rainwise IP-100,2014-02-03 00:48:00,
2014-02-02 19:53:00,42.8,37.0,30.06,WSW,247,5.6,6.0,79,0.00,,,0.00,Rainwise IP-100,2014-02-03 00:53:00,
2014-02-02 19:58:00,42.7,37.0,30.06,WSW,247,4.7,6.0,80,0.00,,,0.00,Rainwise IP-100,2014-02-03 00:58:00,
2014-02-02 20:03:00,42.6,37.0,30.07,WSW,247,3.7,6.0,80,0.00,,,0.00,Rainwise IP-100,2014-02-03 01:03:00,
2014-02-02 20:08:00,42.4,37.0,30.07,West,270,5.8,6.0,80,0.00,,,0.00,Rainwise IP-100,2014-02-03 01:08:00,
2014-02-02 20:13:00,42.0,37.0,30.07,West,270,4.2,6.0,80,0.00,,,0.00,Rainwise IP-100,2014-02-03 01:13:00,
2014-02-02 20:18:00,41.7,37.0,30.07,SW,225,3.7,5.0,81,0.00,,,0.00,Rainwise IP-100,2014-02-03 01:18:00,
2014-02-02 20:23:00,41.5,37.0,30.07,SW,225,4.2,5.0,82,0.00,,,0.00,Rainwise IP-100,2014-02-03 01:23:00,
2014-02-02 20:29:00,41.2,36.0,30.06,SSW,202,3.0,5.0,82,0.00,,,0.00,Rainwise IP-100,2014-02-03 01:29:00,
2014-02-02 20:34:00,41.3,36.0,30.07,SSW,202,0.0,4.0,82,0.00,,,0.00,Rainwise IP-100,2014-02-03 01:34:00,
2014-02-02 20:39:00,41.4,36.0,30.08,WSW,247,1.4,2.0,82,0.00,,,0.00,Rainwise IP-100,2014-02-03 01:39:00,
2014-02-02 20:44:00,41.1,36.0,30.08,WSW,247,2.8,4.0,82,0.00,,,0.00,Rainwise IP-100,2014-02-03 01:44:00,
2014-02-02 20:49:00,40.9,37.0,30.08,WSW,247,2.1,4.0,83,0.00,,,0.00,Rainwise IP-100,2014-02-03 01:49:00,
2014-02-02 20:54:00,41.0,37.0,30.08,WSW,247,2.8,3.0,83,0.00,,,0.00,Rainwise IP-100,2014-02-03 01:54:00,
2014-02-02 20:59:00,41.1,37.0,30.07,WSW,247,1.9,4.0,83,0.00,,,0.00,Rainwise IP-100,2014-02-03 01:59:00,
2014-02-02 21:05:00,41.1,37.0,30.06,WSW,247,0.0,3.0,83,0.00,,,0.00,Rainwise IP-100,2014-02-03 02:05:00,
2014-02-02 21:10:00,41.1,37.0,30.07,WNW,292,2.1,3.0,83,0.00,,,0.00,Rainwise IP-100,2014-02-03 02:10:00,
2014-02-02 21:15:00,41.1,37.0,30.08,WNW,292,3.3,4.0,83,0.00,,,0.00,Rainwise IP-100,2014-02-03 02:15:00,
2014-02-02 21:20:00,41.2,37.0,30.08,WNW,292,2.1,4.0,83,0.00,,,0.00,Rainwise IP-100,2014-02-03 02:20:00,
2014-02-02 21:25:00,41.3,37.0,30.08,WNW,292,1.4,3.0,83,0.00,,,0.00,Rainwise IP-100,2014-02-03 02:25:00,
2014-02-02 21:30:00,41.3,37.0,30.09,WNW,292,3.7,4.0,83,0.00,,,0.00,Rainwise IP-100,2014-02-03 02:30:00,
2014-02-02 21:35:00,41.1,37.0,30.09,NW,315,5.8,6.0,83,0.00,,,0.00,Rainwise IP-100,2014-02-03 02:35:00,
2014-02-02 21:40:00,40.7,37.0,30.08,NW,315,7.0,8.0,83,0.00,,,0.00,Rainwise IP-100,2014-02-03 02:40:00,
2014-02-02 21:46:00,40.3,36.0,30.09,WNW,292,4.7,7.0,83,0.00,,,0.00,Rainwise IP-100,2014-02-03 02:46:00,
2014-02-02 21:51:00,40.1,36.0,30.09,WNW,292,7.5,9.0,84,0.00,,,0.00,Rainwise IP-100,2014-02-03 02:51:00,
2014-02-02 21:56:00,40.3,36.0,30.08,WNW,292,7.7,10.0,83,0.00,,,0.00,Rainwise IP-100,2014-02-03 02:56:00,
2014-02-02 22:01:00,40.6,36.0,30.09,WNW,292,7.9,10.0,82,0.00,,,0.00,Rainwise IP-100,2014-02-03 03:01:00,
2014-02-02 22:06:00,40.8,36.0,30.09,WNW,292,6.1,9.0,82,0.00,,,0.00,Rainwise IP-100,2014-02-03 03:06:00,
2014-02-02 22:11:00,40.9,36.0,30.09,WNW,292,4.0,10.0,82,0.00,,,0.00,Rainwise IP-100,2014-02-03 03:11:00,
2014-02-02 22:16:00,41.0,36.0,30.10,West,270,3.0,8.0,81,0.00,,,0.00,Rainwise IP-100,2014-02-03 03:16:00,
2014-02-02 22:22:00,41.1,36.0,30.10,WNW,292,2.1,5.0,81,0.00,,,0.00,Rainwise IP-100,2014-02-03 03:22:00,
2014-02-02 22:27:00,41.2,36.0,30.10,WNW,292,1.2,2.0,82,0.00,,,0.00,Rainwise IP-100,2014-02-03 03:27:00,
2014-02-02 22:32:00,41.2,36.0,30.10,WNW,292,0.0,2.0,82,0.00,,,0.00,Rainwise IP-100,2014-02-03 03:32:00,
2014-02-02 22:37:00,41.1,36.0,30.11,WNW,292,0.0,1.0,82,0.00,,,0.00,Rainwise IP-100,2014-02-03 03:37:00,
2014-02-02 22:42:00,40.9,36.0,30.10,NNW,337,0.0,2.0,82,0.00,,,0.00,Rainwise IP-100,2014-02-03 03:42:00,
2014-02-02 22:47:00,40.5,36.0,30.10,NNW,337,0.0,0.0,82,0.00,,,0.00,Rainwise IP-100,2014-02-03 03:47:00,
2014-02-02 22:52:00,40.1,36.0,30.10,NNW,337,1.4,1.4,83,0.00,,,0.00,Rainwise IP-100,2014-02-03 03:52:00,
2014-02-02 22:57:00,39.8,36.0,30.09,NNE,22,3.3,3.3,83,0.00,,,0.00,Rainwise IP-100,2014-02-03 03:57:00,
2014-02-02 23:03:00,39.6,36.0,30.09,NW,315,1.6,3.0,83,0.00,,,0.00,Rainwise IP-100,2014-02-03 04:03:00,
2014-02-02 23:08:00,39.8,36.0,30.10,WNW,292,2.8,3.0,83,0.00,,,0.00,Rainwise IP-100,2014-02-03 04:08:00,
2014-02-02 23:13:00,40.0,36.0,30.10,WNW,292,1.4,3.0,84,0.00,,,0.00,Rainwise IP-100,2014-02-03 04:13:00,
2014-02-02 23:18:00,40.1,36.0,30.11,WSW,247,2.1,3.0,84,0.00,,,0.00,Rainwise IP-100,2014-02-03 04:18:00,
2014-02-02 23:23:00,40.0,36.0,30.10,SW,225,1.6,2.0,84,0.00,,,0.00,Rainwise IP-100,2014-02-03 04:23:00,
2014-02-02 23:28:00,39.9,36.0,30.10,SSW,202,3.7,3.7,84,0.00,,,0.00,Rainwise IP-100,2014-02-03 04:28:00,
2014-02-02 23:33:00,39.7,36.0,30.10,SSW,202,2.3,4.0,84,0.00,,,0.00,Rainwise IP-100,2014-02-03 04:33:00,
2014-02-02 23:39:00,39.5,36.0,30.11,SSW,202,2.6,3.0,85,0.00,,,0.00,Rainwise IP-100,2014-02-03 04:39:00,
2014-02-02 23:44:00,39.4,35.0,30.10,SW,225,3.7,4.0,85,0.00,,,0.00,Rainwise IP-100,2014-02-03 04:44:00,
2014-02-02 23:49:00,39.3,35.0,30.11,WSW,247,4.7,4.7,85,0.00,,,0.00,Rainwise IP-100,2014-02-03 04:49:00,
2014-02-02 23:54:00,39.1,35.0,30.11,WSW,247,4.0,6.0,85,0.00,,,0.00,Rainwise IP-100,2014-02-03 04:54:00,
2014-02-02 23:59:00,38.7,35.0,30.10,SW,225,2.8,5.0,85,0.00,,,0.00,Rainwise IP-100,2014-02-03 04:59:00,